Wind_Speed
13 14 15 15 14 13 13 12 11 11 10 9 8 8 8 9 9 9 10 10 9 10 11 12 13 14 16 17 18 19 21 23 23 24 25 24 24 25 25 26 27 28 29
13 13 14 13 13 13 13 13 12 12 12 11 10 9 10 10 10 11 12 11 12 12 13 14 13 14 16 17 18 20 22 23 24 25 25 25 25 25 24 25 26 27 27
12 12 12 12 13 13 13 13 13 13 14 14 12 11 11 11 11 13 13 13 14 14 15 15 14 14 16 18 20 22 23 22 21 21 21 21 21 21 21 22 22 22 22
11 11 11 12 13 14 14 13 13 12 14 15 13 13 13 12 11 13 14 14 15 16 16 16 15 15 17 20 22 23 22 20 18 17 17 16 16 16 16 17 18 19 19
10 11 11 12 13 14 14 13 13 12 13 15 14 14 14 14 13 14 15 16 18 18 17 16 15 15 17 19 21 21 21 19 17 15 15 14 14 15 15 15 16 17 17
11 11 12 12 13 13 13 13 12 12 14 16 15 15 16 16 15 15 16 18 19 19 18 17 16 16 16 17 17 18 18 18 17 15 14 13 14 15 15 15 16 18 19
12 12 12 12 13 14 14 14 13 12 15 17 18 18 18 17 16 15 17 18 19 19 19 18 18 18 17 17 16 16 16 17 16 15 14 14 14 15 17 18 19 21 22
12 13 13 13 14 14 15 15 15 14 14 17 19 20 20 19 18 17 17 19 19 18 18 19 21 21 20 20 19 19 19 18 18 18 18 18 18 19 19 20 22 24 25
13 13 13 13 14 15 16 17 17 17 17 17 18 20 20 21 20 19 19 20 20 19 20 22 23 24 24 25 25 24 23 23 22 22 22 22 23 23 23 23 24 26 27
13 13 13 14 14 15 17 18 19 20 19 19 19 19 20 21 20 20 21 23 24 24 25 26 27 27 28 29 31 31 31 30 30 30 29 28 28 28 28 28 29 30 31
13 14 14 14 15 16 18 19 21 23 23 23 23 22 22 23 23 24 26 28 30 31 31 31 31 31 32 33 35 37 37 37 36 36 36 35 34 33 34 34 34 35 36
14 15 14 15 16 17 18 20 23 25 26 26 26 26 25 26 27 29 30 32 34 34 35 36 36 37 38 40 41 41 41 42 42 42 42 41 39 39 39 39 39 40 41
16 16 15 16 17 18 19 20 22 24 26 27 27 28 28 29 31 32 34 35 37 38 39 41 42 43 45 46 46 45 44 44 44 45 46 46 45 45 45 45 45 46 46
18 18 17 18 18 19 20 21 21 22 24 26 27 28 29 31 33 35 37 39 41 43 45 46 46 47 48 48 47 46 45 45 45 45 47 49 50 51 51 50 50 51 50
20 21 21 21 19 19 20 20 21 21 23 25 27 29 31 34 37 39 42 44 45 45 45 45 45 46 46 46 46 46 46 45 45 46 46 48 49 51 53 53 54 54 54
23 23 22 21 20 19 19 20 21 23 25 27 29 31 35 38 41 44 45 45 44 42 41 40 41 41 43 44 45 45 46 47 48 49 49 49 50 51 52 54 55 56 56
26 25 23 22 21 20 20 21 23 25 28 30 33 35 39 42 44 44 42 41 40 40 39 39 39 40 41 43 44 45 46 47 48 48 49 49 50 52 53 54 55 55 56
28 27 25 22 22 22 22 24 26 29 32 34 35 36 37 37 37 36 36 36 37 37 37 37 38 39 40 42 43 44 45 46 47 48 49 50 52 53 54 55 56 56 56
29 27 23 22 23 23 25 27 30 33 35 36 35 33 33 33 33 32 32 33 34 34 36 37 39 41 42 44 45 46 47 49 51 52 53 55 56 57 58 59 60 60 60
26 24 23 23 25 26 28 31 33 35 35 35 33 32 31 31 31 31 32 34 35 37 39 41 43 44 46 48 50 50 51 52 53 55 57 59 61 62 63 64 64 64 65
23 22 23 26 28 31 33 34 34 34 33 32 31 29 29 30 32 34 36 37 40 42 44 46 48 50 52 55 56 56 56 57 57 58 59 61 62 63 64 65 65 66 66
22 23 26 29 32 35 36 34 33 31 29 29 30 31 33 34 36 38 41 43 45 47 50 52 54 55 56 57 59 61 60 58 58 59 60 61 62 62 63 63 63 64 64
23 26 29 32 35 35 33 30 28 28 29 31 33 35 37 39 41 44 46 48 50 51 52 54 56 58 59 59 62 64 66 66 66 65 65 65 65 65 66 65 65 65 64
26 29 32 34 33 30 29 29 30 31 32 34 37 39 41 44 46 47 48 50 51 53 55 57 59 60 62 63 65 69 72 75 77 76 74 73 71 70 68 67 66 66 65
30 32 33 33 31 30 30 32 33 35 37 38 40 42 44 45 46 48 50 53 56 58 60 62 63 65 67 70 73 75 78 80 82 84 82 81 81 80 79 76 72 69 66
32 33 33 32 31 32 34 35 37 38 40 41 42 43 45 48 50 53 57 61 64 66 68 70 72 74 76 78 81 82 84 86 88 91 92 91 90 88 88 86 84 79 74
Wind_Direction
268 271 273 275 276 276 270 266 255 244 240 242 245 259 263 258 257 263 269 285 299 303 307 309 312 319 319 317 313 308 303 300 298 295 293 291 291 293 298 303 305 307 311
273 279 277 277 276 272 262 260 258 246 237 237 239 250 259 261 265 268 271 279 286 293 301 305 310 316 317 317 314 310 306 304 303 300 296 292 290 290 295 300 304 308 311
283 287 281 278 272 267 260 263 263 248 236 235 236 246 257 262 270 275 279 281 284 290 297 302 308 312 313 314 312 309 306 306 308 306 302 299 297 297 299 302 306 309 314
297 296 285 276 268 263 260 264 267 252 237 234 237 248 260 266 271 274 278 280 285 290 295 299 303 306 309 311 311 308 304 304 308 309 308 308 306 305 305 309 312 316 321
298 293 282 275 268 264 263 263 269 256 240 237 241 252 266 275 276 272 271 276 283 291 296 294 296 299 305 309 311 311 306 305 308 312 316 317 317 316 316 317 319 321 324
296 289 279 278 270 265 265 266 270 260 248 245 247 255 267 279 284 277 271 275 282 289 291 288 289 291 298 307 316 319 317 315 315 318 322 325 325 323 320 320 322 324 325
298 291 279 278 273 263 262 263 263 267 260 255 254 257 264 273 279 275 272 275 280 285 286 285 285 284 291 301 309 314 318 320 322 323 323 321 318 316 317 319 321 321 321
298 294 283 274 272 265 262 266 265 269 272 267 262 261 264 269 271 270 272 276 280 284 286 286 287 284 286 292 295 299 304 308 310 311 310 307 306 307 309 311 313 317 319
294 293 288 277 272 270 266 267 270 272 276 276 270 264 263 264 266 270 273 277 281 283 285 286 288 288 287 288 289 290 292 294 296 298 298 298 298 299 301 304 309 312 313
292 294 290 284 276 272 268 266 267 269 272 274 274 268 265 265 268 272 275 277 280 282 282 283 286 288 290 290 289 288 287 287 287 289 292 294 295 295 297 299 302 304 306
293 298 294 289 282 277 274 269 266 266 267 268 271 270 269 270 272 275 278 280 281 283 285 285 285 287 289 291 292 291 289 287 286 287 289 290 291 291 291 292 295 299 302
294 301 300 294 289 284 280 274 267 265 265 266 270 272 273 274 276 279 282 284 285 286 287 288 287 287 289 291 292 291 289 287 286 286 286 287 288 288 289 290 292 295 297
290 299 303 297 293 291 286 279 272 268 268 270 272 273 275 277 279 282 284 287 288 288 287 286 286 287 288 289 291 290 288 287 287 286 286 286 287 288 288 289 290 292 294
285 293 298 301 298 295 292 287 281 277 276 276 276 277 280 281 283 285 286 287 288 288 287 285 285 286 287 289 290 290 290 292 292 290 288 288 288 288 288 289 290 291 291
282 290 296 301 301 296 292 291 290 286 284 284 285 286 287 287 286 285 286 289 290 290 288 287 287 289 290 291 291 292 293 293 293 292 291 290 289 289 288 288 289 289 290
283 290 293 294 293 291 289 289 292 293 292 291 292 292 291 289 288 288 290 291 292 291 290 289 289 289 290 290 291 291 291 290 290 290 291 291 290 289 288 288 288 288 288
284 288 289 288 287 287 288 290 293 295 296 295 294 292 290 288 288 289 290 290 289 289 289 288 288 289 290 290 290 289 288 288 288 289 289 288 288 287 286 286 286 286 286
285 286 283 281 283 287 291 295 299 301 301 299 296 294 292 291 291 292 291 290 290 291 292 292 293 292 293 292 291 291 292 291 291 290 289 288 287 286 286 285 285 285 285
282 281 277 279 284 289 294 298 300 302 301 300 298 296 294 293 293 294 295 295 296 296 295 294 293 293 293 292 293 293 294 293 293 292 291 289 288 288 287 286 286 286 286
276 274 275 279 284 289 293 295 297 298 298 297 296 295 295 296 297 297 296 295 294 294 293 293 293 293 293 292 292 292 291 290 290 290 289 289 288 288 288 288 288 288 287
267 268 272 278 283 287 291 292 293 293 294 294 294 294 295 295 295 295 295 294 294 294 294 294 295 295 295 294 294 293 292 292 291 290 289 288 288 288 288 288 287 286 286
263 268 274 280 285 288 290 290 291 291 290 291 292 293 294 294 294 294 295 296 296 297 297 298 298 298 298 298 297 296 295 294 293 292 292 291 290 289 288 287 286 285 285
268 273 278 283 287 289 288 287 287 288 289 290 291 292 293 294 295 296 297 298 299 300 300 301 301 300 299 298 298 298 298 297 295 294 293 292 291 290 288 287 285 284 283
272 278 283 287 289 288 286 285 286 288 289 290 291 293 294 295 297 299 301 302 302 301 300 300 299 298 298 298 298 298 299 299 298 296 294 293 291 290 288 287 285 283 281
278 284 289 290 289 287 285 286 287 289 289 291 293 296 298 300 302 303 303 302 302 301 301 300 299 299 298 297 297 297 298 297 297 296 294 292 291 291 290 288 285 281 278
284 288 289 288 286 285 286 287 289 291 293 296 299 301 303 304 305 305 305 305 305 304 303 301 300 299 298 297 297 297 297 296 296 295 294 292 290 289 289 288 287 283 278
Height
5862 5862 5862 5862 5862 5861 5861 5861 5861 5861 5862 5862 5862 5863 5862 5862 5862 5861 5861 5860 5860 5861 5860 5858 5857 5856 5855 5854 5852 5850 5849 5847 5845 5844 5842 5841 5839 5838 5836 5834 5834 5833 5831
5861 5860 5860 5860 5860 5860 5859 5859 5859 5859 5859 5860 5860 5860 5860 5860 5859 5859 5859 5859 5859 5859 5858 5856 5855 5854 5853 5851 5849 5848 5846 5843 5842 5840 5838 5836 5835 5833 5832 5831 5830 5828 5826
5859 5858 5858 5858 5858 5858 5858 5857 5857 5857 5857 5857 5857 5857 5857 5857 5857 5857 5857 5857 5857 5857 5855 5854 5853 5852 5850 5849 5847 5845 5843 5840 5838 5836 5834 5832 5830 5829 5828 5827 5826 5824 5822
5857 5856 5856 5856 5856 5856 5856 5855 5855 5854 5854 5855 5854 5854 5855 5855 5854 5855 5855 5855 5855 5854 5853 5851 5850 5849 5848 5847 5845 5842 5839 5837 5835 5833 5830 5828 5827 5825 5824 5823 5822 5821 5819
5855 5855 5854 5854 5854 5854 5854 5853 5853 5853 5853 5852 5852 5852 5853 5852 5852 5853 5853 5853 5852 5851 5850 5849 5848 5847 5845 5844 5841 5839 5836 5834 5832 5830 5828 5826 5824 5823 5822 5821 5819 5818 5816
5853 5853 5852 5851 5852 5852 5852 5852 5852 5851 5851 5851 5850 5850 5850 5850 5850 5850 5850 5850 5849 5848 5847 5846 5845 5844 5842 5840 5838 5836 5834 5831 5829 5827 5825 5824 5822 5821 5820 5818 5816 5815 5812
5851 5851 5850 5849 5850 5850 5850 5850 5850 5850 5849 5849 5848 5848 5848 5848 5848 5847 5847 5847 5846 5845 5843 5842 5841 5840 5839 5837 5835 5833 5831 5829 5827 5825 5823 5822 5820 5819 5817 5815 5813 5811 5809
5849 5850 5849 5847 5847 5847 5847 5848 5847 5847 5847 5846 5846 5845 5845 5845 5845 5844 5844 5843 5842 5841 5840 5839 5838 5837 5836 5834 5832 5830 5828 5826 5824 5822 5821 5819 5817 5815 5813 5811 5809 5807 5805
5847 5847 5846 5845 5844 5844 5844 5844 5845 5844 5844 5844 5843 5842 5842 5841 5841 5841 5840 5840 5839 5838 5836 5835 5834 5833 5831 5830 5828 5826 5824 5822 5820 5818 5816 5814 5812 5810 5808 5806 5804 5802 5799
5845 5845 5844 5842 5841 5841 5841 5841 5841 5841 5841 5840 5840 5839 5838 5838 5838 5837 5836 5836 5835 5833 5832 5831 5829 5828 5826 5825 5823 5821 5819 5816 5814 5812 5810 5809 5807 5804 5802 5800 5798 5795 5793
5843 5842 5841 5839 5838 5838 5838 5837 5838 5838 5837 5836 5836 5835 5834 5834 5833 5832 5831 5831 5830 5828 5827 5826 5824 5823 5821 5819 5817 5815 5813 5811 5808 5805 5804 5802 5800 5797 5795 5792 5790 5788 5786
5840 5839 5838 5837 5835 5834 5834 5833 5833 5833 5833 5832 5832 5831 5830 5830 5829 5828 5827 5826 5825 5823 5822 5820 5818 5816 5814 5811 5809 5807 5805 5803 5801 5798 5795 5793 5792 5790 5787 5785 5782 5780 5777
5838 5837 5836 5834 5832 5831 5830 5829 5829 5828 5828 5828 5827 5827 5826 5825 5824 5823 5822 5820 5819 5817 5815 5813 5811 5808 5806 5804 5802 5799 5797 5795 5793 5790 5788 5785 5783 5781 5779 5777 5774 5771 5769
5835 5834 5833 5831 5829 5827 5826 5826 5825 5824 5824 5823 5823 5822 5821 5820 5818 5817 5815 5813 5811 5809 5807 5805 5802 5800 5798 5796 5793 5791 5788 5787 5785 5783 5780 5777 5775 5772 5770 5768 5765 5762 5759
5832 5831 5830 5828 5826 5824 5823 5822 5821 5820 5820 5819 5817 5816 5815 5813 5812 5810 5808 5806 5803 5801 5798 5796 5794 5791 5789 5786 5784 5781 5779 5777 5775 5773 5771 5768 5765 5762 5759 5757 5754 5752 5749
5828 5827 5826 5824 5822 5821 5819 5818 5817 5817 5815 5814 5812 5810 5808 5806 5804 5802 5800 5797 5794 5791 5789 5787 5784 5782 5779 5776 5774 5771 5768 5766 5764 5762 5760 5757 5754 5751 5748 5745 5743 5740 5738
5822 5822 5822 5820 5818 5817 5815 5814 5813 5812 5810 5808 5806 5804 5801 5799 5796 5794 5792 5789 5785 5782 5780 5777 5775 5772 5770 5767 5764 5760 5758 5756 5753 5751 5748 5745 5742 5739 5736 5733 5731 5728 5725
5816 5817 5817 5816 5814 5812 5810 5809 5807 5806 5804 5801 5799 5796 5794 5791 5789 5787 5784 5781 5777 5775 5772 5769 5766 5763 5760 5757 5754 5751 5749 5746 5743 5739 5736 5733 5729 5726 5723 5720 5717 5715 5712
5811 5811 5811 5810 5809 5808 5805 5803 5801 5799 5797 5794 5792 5789 5787 5784 5782 5780 5778 5774 5771 5769 5765 5761 5758 5754 5752 5749 5745 5743 5739 5735 5731 5728 5724 5720 5716 5713 5710 5707 5704 5701 5698
5806 5805 5805 5805 5804 5802 5800 5798 5795 5792 5790 5788 5785 5783 5780 5778 5776 5773 5771 5767 5764 5761 5757 5753 5749 5745 5742 5737 5734 5731 5728 5724 5720 5716 5711 5707 5703 5699 5696 5693 5690 5686 5683
5801 5801 5800 5800 5798 5796 5794 5791 5788 5786 5783 5781 5779 5776 5774 5771 5769 5766 5763 5759 5755 5752 5748 5743 5739 5735 5731 5725 5721 5718 5716 5711 5707 5702 5697 5693 5689 5685 5681 5677 5673 5670 5666
5796 5796 5795 5794 5793 5790 5787 5784 5781 5779 5777 5774 5772 5770 5767 5764 5761 5758 5754 5750 5746 5742 5738 5732 5727 5722 5718 5712 5706 5702 5701 5701 5695 5689 5683 5678 5674 5669 5664 5660 5656 5652 5649
5792 5791 5790 5788 5787 5784 5781 5778 5776 5773 5771 5768 5766 5763 5760 5756 5753 5749 5745 5741 5736 5732 5727 5721 5716 5710 5706 5700 5692 5686 5682 5680 5677 5676 5671 5665 5659 5654 5649 5644 5639 5634 5630
5786 5785 5783 5781 5779 5777 5775 5773 5770 5767 5764 5762 5759 5756 5752 5749 5745 5740 5736 5731 5727 5722 5716 5711 5705 5698 5693 5687 5680 5672 5665 5659 5654 5652 5653 5648 5643 5638 5632 5627 5622 5616 5612
5780 5778 5776 5774 5772 5771 5769 5766 5764 5761 5758 5755 5751 5748 5744 5740 5736 5731 5726 5721 5716 5710 5704 5698 5691 5684 5677 5670 5664 5657 5649 5641 5632 5625 5626 5626 5621 5618 5612 5608 5603 5598 5593
5773 5771 5769 5768 5766 5763 5761 5759 5756 5753 5750 5746 5743 5739 5735 5730 5725 5720 5714 5708 5701 5694 5688 5681 5674 5666 5659 5651 5644 5636 5628 5621 5612 5601 5596 5597 5595 5595 5588 5584 5580 5576 5572